User: anonymous   Login
Location: Unspecified
(0.0000°N, 0.0000°E)
Time: 17:44:33
(UTC+00:00)
Language:

Telecom 2C - Orbit

View from above orbital plane
View from above orbital plane
View from above satellite
View from above satellite

Ground track
Ground track

The orbit data is extracted from the following two-line orbital elements,

1 23730U 95067A   18197.59081288 -.00000054  00000-0  00000+0 0  9998
2 23730  11.2915  35.9485 0015394 233.7835 126.1197  0.97939242 82184
Epoch (UTC): 16 July 2018 14:10:46
Eccentricity: 0.0015394
inclination: 11.2915°
perigee height: 36387 km
apogee height: 36519 km
right ascension of ascending node: 35.9485°
argument of perigee: 233.7835°
revolutions per day: 0.97939242
mean anomaly at epoch: 126.1197°
orbit number at epoch: 8218

The dashed part of the orbit path shows where the satellite is in the earth's shadow,  

DLR